Temperature
14 15 15 15 15 15 15 15 15 15 15 15 15 15 15 15 15 15 15 15 15 15 15 15 15 15 15 15 15 15 15 15 15 15 15 15 14 14 14 14 14 14 14
14 15 15 15 15 14 14 14 14 14 14 14 14 14 15 14 14 14 15 15 14 14 15 15 15 15 15 15 15 15 15 15 14 14 14 14 14 14 14 14 14 14 14
14 14 14 14 14 14 14 14 14 14 14 14 14 14 14 14 14 14 14 14 14 14 14 14 14 14 14 14 15 15 14 14 14 14 14 14 14 14 14 14 14 14 14
14 14 14 14 14 14 14 14 14 14 14 14 14 14 14 14 14 14 14 14 14 14 14 14 14 14 14 14 14 14 14 14 14 13 13 13 13 13 13 13 13 14 14
14 14 14 14 14 14 14 14 14 14 14 14 14 14 14 14 14 14 14 14 14 14 14 14 14 14 14 14 14 14 14 14 13 13 13 13 13 13 13 13 13 13 13
13 13 14 14 14 14 14 14 14 14 14 14 13 13 14 14 14 14 14 14 14 14 14 14 14 14 14 14 14 14 13 13 13 13 13 13 13 13 13 13 13 13 13
13 13 13 13 13 13 13 13 13 13 13 13 13 13 13 13 13 13 13 13 13 13 13 13 14 14 14 14 13 13 13 13 13 12 12 13 13 13 13 13 13 13 12
13 13 13 13 13 13 13 13 13 13 13 13 13 13 13 13 13 13 13 13 13 13 13 13 13 13 13 13 13 13 13 13 12 12 12 12 12 12 12 12 12 12 12
12 13 13 13 13 13 13 12 13 13 13 13 13 13 13 13 13 13 13 13 13 13 13 13 13 13 13 13 13 13 12 12 12 12 12 12 12 12 12 12 12 12 12
12 12 12 12 12 12 12 12 12 12 12 12 12 12 12 13 13 12 13 13 13 13 13 12 12 12 12 12 12 12 12 12 12 11 11 12 12 11 11 11 11 11 11
12 12 12 12 12 12 12 12 12 12 12 12 12 12 12 12 12 12 12 12 12 12 12 12 12 12 12 12 12 12 12 12 11 11 11 11 11 11 11 11 11 11 11
11 11 11 11 11 12 12 12 12 12 12 12 12 12 12 12 12 12 12 12 12 12 12 12 12 12 11 11 11 11 11 11 11 11 11 11 11 11 11 11 11 11 11
11 11 11 11 11 11 11 11 11 11 11 11 11 11 11 11 11 11 11 11 12 11 11 11 11 11 11 11 11 11 11 11 11 11 10 10 10 10 10 10 10 10 10
11 11 11 11 11 11 11 11 11 11 11 11 11 11 11 11 11 11 11 11 11 11 11 11 11 11 10 10 10 10 10 10 10 10 10 10 10 10 10 10 10 10 10
11 11 11 11 10 10 10 10 10 10 10 10 10 10 10 10 10 10 10 10 10 10 10 10 10 10 10 10 10 10 10 10 9 9 9 10 10 10 10 10 9 9 10
10 10 10 10 10 10 10 10 10 10 10 10 10 10 10 10 10 10 10 10 10 10 10 10 10 9 10 9 9 9 9 9 9 9 9 9 9 9 9 9 9 9 9
10 10 10 10 10 10 10 10 10 10 10 9 9 9 9 9 9 9 9 9 9 9 9 9 9 9 9 9 9 9 9 9 9 8 8 8 8 9 9 8 8 8 8
9 9 9 9 9 9 9 9 9 9 9 9 9 9 9 9 9 9 9 9 9 9 9 9 9 9 8 8 8 8 8 8 8 8 8 8 8 8 8 8 8 8 8
9 9 9 9 9 9 9 9 9 9 9 9 9 9 9 9 9 9 9 8 8 8 8 8 8 8 8 8 8 8 8 8 8 8 8 8 7 7 7 7 7 7 7
9 9 9 9 9 9 9 8 8 8 8 8 8 8 8 8 8 8 8 8 8 8 8 8 8 7 7 7 7 7 7 7 7 7 7 7 7 7 7 7 7 7 7
9 8 8 8 8 8 8 8 8 8 8 8 8 8 8 8 8 8 8 8 8 7 7 7 7 7 7 7 7 6 7 7 7 7 7 7 7 6 6 6 6 6 6
8 8 8 8 8 8 8 8 8 8 7 7 7 7 7 7 7 7 7 7 7 7 7 7 6 6 6 6 6 6 6 6 6 6 6 6 6 6 6 6 6 6 6
8 8 8 8 7 7 7 7 7 7 7 7 7 7 7 7 7 7 7 7 7 6 6 6 6 6 6 6 5 5 5 5 5 5 5 5 5 5 5 5 5 5 5
7 7 7 7 7 7 7 7 7 7 7 7 7 6 6 6 6 6 6 6 6 6 6 6 5 5 5 5 5 5 5 5 5 4 5 5 5 5 5 5 5 5 5
7 7 7 7 7 6 6 6 6 6 6 6 6 6 6 6 6 6 6 6 6 6 5 5 5 5 5 5 5 5 4 4 4 4 4 4 4 4 4 4 4 4 4
6 6 6 6 6 6 6 6 6 6 6 6 5 5 5 5 5 5 5 5 5 5 5 5 5 5 4 4 4 4 4 4 4 3 3 3 3 3 4 4 4 4 3
Wind_Speed
5 8 8 8 8 9 9 10 10 10 11 11 11 11 12 12 12 13 13 13 13 13 13 14 14 15 16 16 15 15 15 15 15 15 15 16 16 16 16 16 16 15 16
6 9 10 8 9 9 10 10 10 11 11 11 11 11 11 11 12 12 12 12 13 13 13 14 14 14 15 15 15 14 13 13 13 13 13 14 16 16 16 16 16 14 16
7 10 10 9 10 10 10 10 11 11 11 11 10 11 11 11 11 12 12 12 12 13 13 13 13 13 14 14 13 13 13 12 11 11 11 12 14 15 15 16 16 15 15
8 10 9 10 10 10 11 11 11 11 11 10 10 10 11 11 11 11 11 12 12 12 12 12 12 12 12 13 12 12 12 11 10 10 11 12 12 14 14 14 14 14 14
8 10 10 11 10 11 11 11 11 11 10 11 10 10 10 10 10 10 10 10 11 11 12 12 12 12 12 12 11 11 10 10 10 10 12 13 12 13 13 13 13 13 13
8 10 11 11 11 11 11 11 11 10 10 10 10 10 10 10 10 10 10 10 10 11 11 11 12 11 11 11 10 10 9 9 9 10 12 12 12 12 12 12 11 11 11
7 10 10 11 10 10 10 11 11 10 10 10 10 10 10 10 10 11 10 10 10 11 11 11 11 11 11 10 10 9 8 8 8 10 11 12 12 12 12 11 10 10 10
8 9 9 10 10 10 10 10 10 10 10 9 9 10 10 10 10 10 10 10 10 10 10 10 10 10 10 9 9 8 8 8 8 10 11 12 11 11 11 10 10 10 10
8 8 7 8 9 10 10 10 9 9 9 9 9 9 9 9 9 9 9 9 9 10 10 10 9 9 9 9 8 8 8 8 9 9 10 10 10 10 10 9 9 9 9
7 6 6 7 8 8 8 9 9 8 9 9 9 9 9 8 9 8 8 8 8 9 9 9 9 8 8 8 8 7 8 8 9 9 10 9 10 10 9 9 8 8 8
5 5 5 5 6 6 6 7 7 7 7 7 7 7 7 6 7 7 7 8 8 8 8 7 7 7 7 7 6 7 7 7 8 8 9 9 10 9 9 9 8 8 8
4 4 4 3 4 5 5 5 5 5 5 5 5 5 5 5 6 7 8 8 8 8 8 7 6 5 4 4 5 5 5 6 7 8 9 9 9 8 8 8 8 8 8
4 4 3 3 4 4 3 4 4 4 4 5 6 5 5 5 6 6 6 6 6 6 5 5 6 5 5 5 5 5 5 6 6 8 9 9 8 7 7 6 6 6 7
4 4 3 3 4 4 3 3 4 3 4 4 5 6 5 4 4 4 4 5 5 5 4 4 4 5 6 6 6 6 6 6 6 8 8 8 8 8 7 5 5 5 5
4 4 3 3 3 3 3 2 3 3 3 4 4 5 6 4 4 4 4 5 5 5 4 4 4 4 5 5 5 6 6 6 6 7 8 9 8 8 8 7 7 6 6
4 4 3 3 3 3 3 2 2 3 4 4 5 5 5 5 4 4 4 4 5 5 4 4 4 4 4 4 4 5 5 5 7 7 7 7 8 8 7 7 7 7 7
4 4 3 3 3 3 2 2 2 3 4 4 4 5 5 5 4 4 3 3 4 4 4 4 4 4 3 3 3 4 4 5 5 6 6 5 5 6 6 7 7 6 6
4 4 3 3 3 3 3 2 2 3 3 4 4 4 4 4 4 4 3 3 4 4 3 2 2 2 2 2 2 2 3 3 4 5 5 5 5 5 5 5 6 6 6
4 5 4 4 4 3 3 3 3 2 3 3 4 4 4 4 4 3 3 3 3 3 2 2 2 1 2 2 1 1 1 1 2 2 3 4 4 4 4 4 5 6 6
3 4 5 4 3 4 3 2 2 2 2 2 3 3 3 3 3 3 2 3 3 2 1 1 2 2 1 1 1 1 0 1 1 1 2 3 3 3 3 3 3 4 5
4 4 5 5 4 3 3 2 2 2 1 1 1 3 3 3 3 3 2 2 2 1 1 1 1 1 1 1 1 1 1 1 1 1 1 2 2 2 2 2 3 3 3
4 4 4 4 4 4 3 2 2 2 1 1 1 2 2 3 3 2 2 2 1 1 1 1 1 1 0 1 1 0 1 1 1 1 1 1 1 1 1 1 1 2 2
3 3 3 4 4 4 3 2 2 2 1 1 1 1 1 2 3 3 2 2 2 2 2 1 1 2 1 1 1 1 1 1 1 1 2 1 1 1 1 1 1 1 2
3 3 3 3 4 3 3 3 3 3 3 2 2 2 2 3 3 3 2 2 2 1 2 1 1 1 1 1 1 1 0 1 1 1 2 1 1 1 1 1 1 2 3
3 3 3 3 3 3 3 3 3 2 2 2 2 3 3 2 3 3 3 2 2 1 2 1 1 1 1 1 1 0 1 1 1 1 2 2 2 2 1 2 2 2 3
3 3 3 3 3 3 3 3 3 3 2 2 2 2 2 2 2 2 3 2 2 2 2 2 2 2 1 1 1 1 1 1 1 1 2 2 2 3 2 2 2 2 3
Wind_Direction
92 95 91 84 87 88 89 87 84 83 80 78 76 74 72 72 73 71 70 68 69 72 73 73 72 71 71 71 71 72 72 74 77 77 78 80 80 76 73 71 71 71 72
105 106 96 87 89 90 89 87 85 84 82 79 79 78 76 75 74 72 70 69 70 72 72 73 74 72 71 71 71 71 73 76 77 77 79 80 80 78 74 71 71 71 70
99 105 100 90 89 89 89 88 88 86 84 82 80 81 80 77 74 73 70 69 70 72 74 75 75 73 71 70 70 69 71 72 71 70 74 79 80 78 75 73 72 71 70
95 100 101 95 91 89 87 87 88 86 84 83 82 82 82 79 76 74 73 71 72 73 75 76 77 76 73 71 69 69 68 63 63 64 69 71 72 75 73 74 73 71 69
91 97 101 99 95 92 89 86 86 86 83 83 83 82 80 80 78 75 75 75 75 77 77 80 79 77 76 72 69 65 61 58 55 60 69 70 68 71 71 71 72 71 69
90 92 100 102 97 92 89 87 84 84 84 82 80 79 81 79 77 74 76 77 79 80 81 80 79 79 76 73 67 62 57 53 51 60 68 70 69 71 70 71 70 70 68
93 93 102 103 99 93 90 88 84 82 83 84 83 81 80 80 77 74 75 76 79 81 81 79 79 78 76 71 65 58 51 45 57 64 67 69 69 70 70 69 68 67 67
94 95 103 105 99 94 91 89 87 83 81 82 83 82 79 78 80 78 77 78 78 80 83 81 80 78 76 71 63 52 40 39 51 67 73 72 71 68 67 67 66 65 63
94 95 99 104 100 94 91 89 88 89 84 82 83 81 80 77 77 79 79 82 82 82 82 81 80 79 77 74 63 48 33 34 42 58 70 72 72 69 67 66 68 65 63
97 96 94 97 99 100 95 94 91 92 89 87 87 84 83 81 75 76 80 84 87 86 83 80 78 77 78 74 61 43 35 40 46 56 65 72 74 69 65 62 63 62 62
94 96 94 93 94 100 104 103 99 95 93 91 89 87 86 84 83 78 80 84 88 90 89 81 81 77 81 73 58 49 53 44 53 60 63 73 75 70 65 61 58 57 58
115 106 94 90 95 96 103 106 100 98 92 88 85 82 81 81 87 88 88 87 83 83 82 77 76 76 72 65 54 53 49 49 57 64 64 73 74 68 64 61 60 58 57
129 116 110 91 91 91 95 99 87 84 81 73 66 63 71 80 83 86 88 85 81 77 67 67 69 56 52 50 51 48 41 50 65 69 65 69 69 65 64 65 61 57 54
132 126 119 100 95 92 92 92 95 85 79 73 66 59 57 59 60 64 68 70 70 68 55 54 61 55 50 48 49 41 38 46 61 76 72 69 65 62 62 62 59 56 50
134 129 119 105 105 101 95 83 88 82 85 85 79 67 62 59 58 57 59 58 63 61 47 43 50 56 53 47 49 49 43 42 57 76 78 73 64 57 53 54 56 53 48
131 133 132 122 102 101 94 91 89 89 82 81 79 76 73 71 66 62 62 57 57 53 43 43 45 53 56 49 50 50 50 44 53 71 85 78 66 56 47 43 43 41 39
141 129 131 134 110 108 104 94 86 95 101 86 81 79 74 72 72 72 73 65 57 56 50 50 45 50 52 43 39 48 52 55 58 66 71 79 72 60 50 39 31 28 25
143 141 141 133 127 122 115 102 86 91 99 101 100 93 83 78 77 77 82 75 62 62 53 61 61 59 49 33 26 25 47 57 63 65 67 70 69 59 46 36 26 20 15
147 146 146 145 147 137 120 108 100 95 94 103 107 100 94 89 85 82 84 80 75 73 62 55 59 65 56 25 5 8 39 66 67 75 74 67 69 61 50 34 27 18 12
148 148 149 152 146 138 126 117 112 101 88 94 108 111 110 98 92 85 81 78 81 87 71 65 70 62 72 24 354 355 329 160 98 99 93 80 79 65 55 38 25 11 9
153 152 153 156 152 142 138 144 144 146 137 117 103 120 122 118 114 103 89 92 92 113 118 96 85 91 55 31 31 348 314 226 148 162 123 107 92 85 74 51 34 20 1
147 155 157 158 154 151 156 158 149 138 137 123 93 104 130 133 134 132 118 125 120 128 125 118 106 99 102 71 86 320 301 309 281 214 171 167 154 125 104 59 37 18 358
148 152 159 158 155 154 151 133 121 108 111 122 148 169 160 147 137 135 142 138 138 146 163 164 149 133 177 253 57 133 163 246 308 274 221 194 186 183 205 219 232 291 312
152 135 142 148 149 154 154 160 169 180 189 201 186 184 175 170 156 155 154 151 145 146 154 179 154 149 154 205 290 320 173 168 191 298 294 254 222 227 238 267 252 270 288
132 131 135 144 152 154 155 168 172 179 185 168 172 174 184 184 175 172 171 165 158 157 160 159 164 164 175 181 195 250 295 315 248 207 266 288 302 276 258 256 241 244 261
123 130 142 148 156 160 170 184 179 187 175 159 172 186 195 192 186 185 185 175 175 173 185 189 185 185 193 195 207 197 182 208 245 233 252 278 280 274 272 256 246 232 251
Height
1517 1517 1518 1519 1520 1521 1521 1522 1522 1522 1523 1523 1524 1524 1524 1524 1525 1525 1526 1526 1526 1526 1527 1527 1527 1527 1527 1528 1528 1529 1529 1530 1530 1531 1531 1531 1532 1532 1533 1533 1533 1533 1533
1517 1517 1518 1520 1521 1521 1522 1522 1523 1523 1523 1524 1524 1525 1525 1525 1526 1526 1527 1527 1527 1527 1528 1528 1528 1528 1529 1529 1529 1530 1531 1531 1532 1532 1533 1533 1533 1534 1534 1534 1535 1535 1535
1517 1517 1518 1520 1521 1522 1522 1523 1523 1524 1524 1525 1525 1525 1526 1526 1527 1527 1527 1528 1528 1528 1529 1529 1529 1530 1530 1530 1531 1531 1532 1533 1533 1534 1534 1535 1535 1535 1535 1536 1536 1536 1536
1517 1517 1518 1520 1521 1522 1522 1523 1524 1524 1525 1525 1526 1526 1527 1527 1528 1528 1528 1529 1529 1529 1530 1530 1530 1531 1531 1532 1532 1532 1533 1534 1535 1535 1536 1536 1536 1536 1537 1537 1537 1537 1537
1517 1517 1518 1520 1521 1522 1523 1524 1524 1525 1525 1526 1526 1527 1527 1528 1528 1529 1529 1529 1530 1530 1530 1531 1532 1532 1532 1533 1533 1534 1534 1535 1535 1536 1536 1537 1537 1537 1537 1537 1537 1537 1537
1516 1517 1518 1520 1521 1522 1523 1524 1524 1525 1526 1526 1527 1527 1528 1528 1529 1529 1530 1530 1530 1531 1531 1531 1532 1533 1533 1534 1534 1535 1535 1536 1536 1537 1537 1537 1538 1538 1538 1538 1538 1538 1538
1516 1517 1518 1520 1521 1522 1523 1523 1524 1525 1526 1526 1527 1527 1528 1529 1529 1529 1530 1530 1531 1531 1531 1532 1533 1533 1534 1534 1535 1536 1536 1536 1537 1537 1537 1538 1538 1538 1538 1538 1538 1538 1538
1516 1517 1518 1519 1521 1522 1523 1523 1524 1525 1526 1526 1527 1527 1528 1528 1529 1529 1530 1530 1531 1531 1532 1532 1533 1533 1534 1535 1535 1536 1537 1537 1537 1538 1538 1538 1538 1538 1538 1538 1538 1538 1538
1516 1517 1518 1519 1520 1521 1522 1523 1524 1525 1526 1526 1527 1527 1528 1528 1529 1529 1530 1530 1531 1532 1532 1533 1533 1534 1534 1535 1536 1537 1537 1537 1537 1538 1538 1538 1538 1538 1538 1538 1538 1538 1537
1516 1516 1518 1519 1520 1521 1522 1523 1524 1525 1525 1526 1527 1527 1527 1528 1528 1529 1529 1530 1531 1531 1532 1533 1533 1534 1534 1535 1536 1536 1537 1537 1537 1537 1538 1538 1538 1538 1538 1537 1537 1537 1537
1515 1516 1517 1518 1519 1520 1521 1522 1523 1524 1525 1526 1526 1527 1527 1528 1528 1529 1529 1530 1530 1531 1532 1533 1533 1534 1534 1535 1535 1536 1536 1537 1537 1537 1537 1537 1538 1538 1537 1537 1537 1537 1536
1514 1515 1516 1517 1518 1519 1520 1521 1522 1523 1524 1525 1525 1526 1526 1527 1527 1528 1529 1529 1530 1530 1531 1532 1533 1533 1534 1534 1535 1535 1536 1536 1536 1536 1537 1537 1537 1537 1537 1537 1537 1536 1536
1513 1514 1516 1517 1517 1518 1519 1520 1521 1522 1523 1524 1524 1525 1526 1526 1527 1527 1527 1528 1529 1530 1530 1531 1532 1532 1533 1533 1534 1534 1535 1535 1536 1536 1536 1536 1536 1536 1536 1536 1536 1535 1535
1512 1513 1514 1515 1516 1517 1518 1519 1520 1521 1522 1523 1523 1524 1525 1525 1525 1526 1527 1527 1528 1528 1529 1530 1530 1531 1532 1532 1532 1533 1534 1534 1535 1535 1535 1535 1535 1535 1535 1535 1534 1534 1533
1511 1512 1513 1514 1515 1516 1517 1518 1519 1520 1520 1521 1522 1523 1523 1524 1524 1525 1526 1526 1527 1527 1528 1528 1529 1530 1530 1531 1531 1532 1532 1533 1533 1533 1534 1534 1534 1534 1534 1534 1533 1532 1532
1509 1510 1511 1512 1513 1514 1516 1517 1518 1519 1520 1520 1521 1521 1522 1523 1523 1524 1524 1525 1525 1526 1527 1527 1528 1528 1529 1530 1530 1530 1531 1531 1532 1532 1532 1532 1532 1532 1532 1532 1531 1531 1530
1507 1508 1509 1510 1511 1513 1514 1515 1516 1517 1518 1519 1519 1520 1521 1521 1522 1523 1523 1524 1524 1524 1525 1526 1527 1527 1527 1528 1528 1529 1529 1530 1530 1530 1530 1530 1530 1530 1530 1530 1530 1529 1529
1505 1506 1507 1508 1509 1511 1512 1513 1514 1515 1517 1517 1518 1519 1519 1520 1521 1521 1522 1522 1523 1523 1524 1524 1525 1525 1526 1526 1526 1527 1527 1528 1528 1528 1528 1528 1528 1528 1528 1528 1528 1527 1527
1503 1504 1505 1506 1507 1509 1510 1511 1513 1514 1515 1515 1516 1517 1517 1518 1519 1519 1520 1520 1521 1521 1522 1522 1523 1523 1523 1524 1524 1525 1525 1525 1526 1526 1526 1526 1526 1526 1526 1526 1525 1525 1524
1500 1501 1503 1504 1505 1506 1508 1509 1510 1511 1512 1513 1514 1515 1516 1516 1517 1517 1518 1518 1519 1520 1520 1520 1521 1521 1522 1522 1522 1523 1523 1523 1524 1524 1524 1524 1524 1524 1523 1523 1523 1522 1521
1498 1499 1500 1502 1503 1504 1505 1506 1507 1509 1510 1511 1512 1513 1513 1514 1515 1515 1516 1516 1517 1517 1518 1518 1519 1519 1520 1520 1521 1521 1521 1521 1521 1522 1522 1522 1521 1521 1521 1520 1520 1520 1519
1495 1496 1498 1499 1500 1501 1503 1504 1505 1506 1508 1509 1510 1510 1511 1512 1512 1513 1513 1514 1515 1515 1515 1516 1517 1517 1517 1518 1519 1519 1519 1520 1518 1519 1519 1519 1519 1518 1518 1518 1517 1516 1516
1493 1494 1495 1496 1498 1499 1500 1502 1503 1504 1505 1506 1507 1508 1509 1509 1510 1511 1511 1512 1512 1513 1513 1513 1514 1515 1515 1516 1516 1517 1517 1517 1516 1516 1516 1516 1516 1516 1515 1515 1514 1514 1513
1491 1492 1493 1494 1495 1497 1498 1499 1500 1501 1502 1503 1504 1505 1506 1507 1507 1508 1508 1509 1510 1510 1510 1511 1511 1512 1513 1513 1514 1514 1515 1515 1515 1513 1514 1513 1513 1513 1512 1512 1511 1511 1510
1489 1490 1491 1492 1493 1494 1495 1496 1497 1498 1499 1500 1501 1502 1503 1504 1504 1505 1505 1506 1506 1507 1507 1508 1508 1509 1509 1510 1510 1511 1511 1512 1512 1511 1510 1510 1510 1510 1509 1508 1508 1507 1507
1487 1487 1488 1489 1490 1492 1493 1494 1494 1495 1496 1497 1498 1499 1500 1500 1501 1501 1502 1503 1503 1504 1504 1505 1505 1506 1506 1507 1507 1507 1508 1508 1508 1508 1508 1507 1506 1506 1506 1505 1504 1504 1503